Location: Haut Kerinec
(48.0623°N, 4.4081°W)
Time: 22:03:46
(UTC+00:00)

STARLINK-1254 - Pass Details

Date: 03 October 2020
Orbit: 548 x 551 km, 53.0° (Epoch: 26 October)

Event Time Altitude Azimuth Distance (km) Brightness Sun altitude
Exits shadow 04:11:27 23° 168° (SSE) 1,178 5.2 -22.0°
Drops below altitude 10° 04:13:21 10° 151° (SSE) 1,819 6.4 -21.7°
Sets 04:15:40 0° 143° (SE) 2,710 7.4 -21.3°
